STARLINK-36604, 68142

Orbit data source: Space-Track

STARLINK-36604, 68142 is a payload satellite owned by SpaceX/Seattle (US) in SSO that was launched on Fri, 13 Mar 2026 UTC via an FALCON 9 launch vehicle from the Air Force Western Test Range (AFWTR). Payload-class satellites include a variety of spacecraft equipped with specific instruments for various scientific and technological missions. These include communications satellites like Starlink; space stations such as the ISS; scientific satellites like the Hubble; Earth observation satellites from companies like Planet Labs, Umbra, and HawkEye 360; GPS; miniature CubeSats for education and research; and military/defense satellites.

Loading next visibility...
Identifier
68142, 2026-049A
Orbit
SSO
Country
Flag of USUS
Related business
Manufacturer
SpaceX/Seattle
Mission
Operational spacecraft
Bus & Motor
STARLINK V2MO, Unknown motor
Mass
575 kg wet, ~530 kg dry
Launch date (UTC)
2026-03-13 (3 months ago)
Launch vehicle
FALCON 9
Launch site
Air Force Western Test Range (AFWTR)
Object type
Payload
Rocket body
Debris
Shape & HBR
Unknown shape, 17.7 m
Radar Cross Section
Large (>1 m²)

Expand to show TLE details & history
Last TLE update: 12 hours ago

TLE from 12 hours ago
0 STARLINK-36604
1 68142U 26049A   26171.33037522  .00011637  00000-0  36229-3 0  9997
2 68142  97.2876 192.5648 0001942 109.5536 250.5916 15.33437851 15376
Epoch: 2026-06-20T07:55Z
TLE epoch observation values (Epoch: 2026-06-20T07:55:44.419Z)
Latitude
-0.00005°
Longitude
165.08318°
Altitude
469.118 km
Speed
7.631 km/s
True Right ascension
12h 50m 15s
True Declination
0° 00' 00"
Sunlit
Object was in daylight at epoch
Visualization orbit readout
Latitude
Unknown
Longitude
Unknown
Altitude
Unknown
Speed
Unknown
Apparent Right ascension
Unknown
Apparent Declination
Unknown
Sunlit
N/A
Visualization observer readout
Local Sidereal Time
07:18:40
Azimuth
Unknown
Elevation
Unknown
Doppler factor
Unknown
Orbital elements
Apogee altitude
463.836 km
Perigee altitude
461.179 km
Semi-major axis
6,840.644 km
Eccentricity
0.00019
Inclination
97.2876°
RAAN
192.5648°
Arg. of periapsis
109.5536°
True anomaly
250.57061°
Mean anomaly
250.5916°
Eccentric anomaly
250.58111°
Mean motion
3.83617 °/min
Orbital period
93.84 mins
BSTAR
0.00036229
Loading maneuver chart data...
Computing Atmospheric mass density...
Loading historical data...
Loading historical data...
Loading historical data...
Loading historical data...
Loading historical data...
Loading historical data...
Loading historical data...

Documentation

Showing up to 5 results
|